Location: Crescent
(42.8242°N, 73.7329°W)
Time: 20:46:27
(UTC+00:00)

Transit 2A - Pass Details

Date: 07 November 2024
Orbit: 593 x 956 km, 66.7° (Epoch: 14 December)

Event Time Altitude Azimuth Distance (km) Brightness Sun altitude
Rises 08:47:08 0° 153° (SSE) 3,561 9.7 -31.4°
Reaches altitude 10° 08:51:05 10° 128° (SE) 2,661 9.3 -30.7°
Maximum altitude 08:53:54 13° 101° (E) 2,437 9.4 -30.2°
Drops below altitude 10° 08:56:45 10° 74° (ENE) 2,688 9.7 -29.7°
Sets 09:00:46 0° 50° (NE) 3,627 10.2 -29.0°
